Location: ??
(35.4843°N, 139.3383°E)
Time: 02:43:52
(UTC+00:00)

Daily predictions for brighter satellites

Satellite Brightness Start Highest point End
(mag) Time Altitude Azimuth Time Altitude Azimuth Time Altitude Azimuth
Cosmos 1812 Rocket 3.7 10:14:31 10° N 10:19:00 89° W 10:23:28 10° S
Resurs 01 Rocket 3.5 10:17:48 10° ESE 10:20:25 16° ENE 10:23:03 10° NNE
COSMOS 2406 3.6 10:17:41 10° S 10:22:54 40° ESE 10:28:11 10° NE
Cosmos 1825 Rocket 3.5 10:20:56 10° S 10:25:14 72° E 10:29:34 10° N
Cosmos-2242 3.0 10:22:17 10° N 10:26:31 62° E 10:30:43 10° SSE
Meteor 1-27 4.3 10:22:43 10° N 10:28:29 72° E 10:34:16 10° SSE
Cosmos 1656 4.2 10:28:22 10° N 10:33:44 43° ENE 10:38:51 11° SE
OAO 3 Copernicus 4.4 10:29:20 10° WSW 10:34:17 61° SSE 10:39:15 10° E
ERS-2 2.7 10:31:17 10° NNE 10:34:40 36° E 10:38:02 10° SSE
Atlas Centaur 2 2.8 10:33:00 10° SSW 10:35:42 17° SSE 10:37:42 12° SE
Cosmos 1980 Rocket 4.2 10:34:58 10° NNE 10:37:07 12° NE 10:39:14 10° ENE
NOSS 3-2 (A) 4.4 10:33:24 10° NW 10:41:19 75° WSW 10:50:04 10° SSE
Cosmos 1242 Rocket 3.7 10:38:26 10° NNE 10:41:28 25° ENE 10:43:42 14° SE
Helios 1A Rocket 2.9 10:39:36 10° SSE 10:43:37 87° W 10:47:41 10° NNW
Cosmos 1689 Rocket 4.1 10:42:25 10° NNW 10:44:52 29° WNW 10:47:19 10° SW
USA 186 3.0 10:42:24 10° S 10:45:33 42° W 10:48:33 10° NNW
Cosmos 44 Rocket 3.5 10:41:42 10° S 10:46:41 54° ESE 10:51:46 10° NE
BREEZE-M DEB (TANK) 2.2 10:47:31 10° SW 10:50:05 71° SE 10:56:37 10° NE
NOSS 3-4 (A) 4.1 10:47:51 10° SW 10:53:30 55° NW 10:59:27 10° NNE
NOSS 3-4 (C) 4.1 10:47:57 10° SW 10:53:36 56° NW 10:59:34 10° NNE
USA 307 3.0 10:50:56 10° NW 10:55:11 69° NE 10:58:08 19° SE
Cosmos 2221 3.5 10:54:39 10° NNE 10:58:24 29° ENE 11:00:28 20° ESE
ATLAS 2AS CENTAUR R/B 3.0 10:54:08 10° SSW 11:02:02 84° ESE 11:09:54 10° NNE
Hubble Space Telescope 1.8 10:58:51 10° SW 11:02:21 27° S 11:03:51 22° SE
Ariane Rocket 3.0 10:58:31 11° SSE 11:03:20 76° ENE 11:08:25 10° N
OAO 2 Rocket 3.2 10:59:23 10° W 11:04:26 83° S 11:08:07 18° E
Cosmos 1606 4.1 11:02:27 10° NNE 11:05:23 21° ENE 11:06:11 20° E
SEDSat Delta rocket 3.3 11:04:46 10° WSW 11:08:33 39° S 11:10:22 25° ESE
NOSS 3-2 (C) 4.3 11:00:42 10° NNW 11:08:39 81° WSW 11:16:11 15° SSE
IGS 5A 3.7 11:06:30 21° SE 11:09:02 52° ENE 11:13:04 10° N
Cosmos 783 Rocket 4.4 11:04:57 10° S 11:10:07 78° ESE 11:15:19 10° NNE
Meteor 2-2 Rocket 4.3 11:04:36 10° N 11:10:21 62° E 11:14:33 18° SSE
USA 305 2.9 11:07:32 10° NW 11:11:43 74° SW 11:14:01 25° SSE
USA 308 2.8 11:07:48 10° NW 11:12:03 82° SW 11:14:21 26° SE
OBJECT-B 3.4 11:14:50 10° SW 11:17:07 18° W 11:19:25 10° NW
IRS-1A Rocket 4.4 11:12:36 11° S 11:18:04 74° WSW 11:23:35 10° NNW
Cosmos 1634 Rocket 4.5 11:13:47 10° NNW 11:19:57 61° W 11:26:03 10° S
Terra 4.0 11:19:09 11° ENE 11:20:08 11° ENE 11:21:30 10° NE
Resurs 1-3 4.2 11:17:53 12° S 11:21:55 56° W 11:26:14 10° NNW
Cosmos 1825 3.7 11:20:13 10° SSW 11:23:41 36° W 11:27:10 10° NNW
ATLAS 3B R/B 4.2 11:18:45 10° N 11:24:33 26° NE 11:28:58 15° E
USA 267 3.4 11:19:17 10° NE 11:25:34 48° SE 11:31:49 10° SSW
CENTAUR R/B 3.8 11:17:51 10° NW 11:26:07 55° WSW 11:33:53 13° S
Cosmos 2151 3.9 11:26:28 27° E 11:26:37 27° E 11:30:13 10° NNE
Cosmos 1437 2.3 11:23:51 10° N 11:26:37 80° W 11:27:03 58° S
SWAS 4.4 11:24:11 10° NNW 11:28:28 86° WSW 11:30:20 33° SSE
Cosmos 2058 3.7 11:26:49 10° SSW 11:30:51 51° W 11:34:57 10° N
Cosmos 2180 Rocket 4.4 11:24:52 10° N 11:31:03 76° E 11:35:01 23° SSE
ATLAS 2A CENTAUR R/B 4.1 11:18:32 10° WSW 11:35:14 42° S 11:37:26 31° SE
Cosmos 1697 Rocket 2.7 11:29:53 10° NNW 11:35:34 73° ENE 11:38:12 33° SE
SPOT 3 Rocket 3.5 11:32:45 28° SSE 11:35:38 81° ENE 11:40:53 10° N
USA 306 3.7 11:31:41 10° WNW 11:35:44 43° SW 11:37:15 30° S
Cosmos 773 Rocket 4.2 11:31:47 10° SSW 11:37:00 72° WNW 11:42:12 10° NNE
BREEZE-M DEB (TANK) 4.4 11:34:02 10° NNW 11:37:02 24° NE 11:42:27 12° E
Cosmos 2082 Rocket 2.2 11:33:00 10° SSW 11:38:37 83° WNW 11:44:17 10° NNE
Cosmos 1842 Rocket 3.5 11:36:08 10° N 11:40:38 88° ENE 11:42:25 37° S
Cosmos 1833 Rocket 4.2 11:36:31 10° SW 11:41:41 36° WNW 11:46:53 10° N
GP-B 4.2 11:38:38 10° NNE 11:42:06 27° E 11:42:06 27° E
Landsat 7 4.0 11:42:28 27° S 11:44:59 69° WSW 11:49:45 10° NNW
Cosmos 1076 Rocket 3.4 11:43:14 32° S 11:45:11 89° E 11:49:33 10° N
Cosmos 1633 3.0 11:53:09 39° SW 11:54:11 57° W 11:57:45 10° N
GENESIS II 4.3 11:52:06 10° NNW 11:55:57 59° ENE 11:56:00 59° ENE
